When you browse on this site, cookies collect data to enhance your experience and personalize the content and advertising you see.
Visit our Privacy Policy to learn more. By continuing to use the site, you agree to this use of cookies and data.
  • In Schweiz
  • Länderverzeichnis
  • Für 7 Tage
  • Wassertemperatur
  • Wetterkarte
  • Widgets
  • user-avatar
    Anmelden

    Stündliche Wetter Biskira

    Heute, 21 November, Donnerstag

    Zeit Temperatur Niederschläge Wind Luftdruck Luftfeuchtigkeit
    00:00 +13°C° 0 mm 4 m/S 752 mmHg 47%
    01:00 +13°C° 0 mm 4 m/S 752 mmHg 48%
    02:00 +12°C° 0 mm 4 m/S 751 mmHg 49%
    03:00 +12°C° 0 mm 4 m/S 751 mmHg 50%
    04:00 +11°C° 0 mm 4 m/S 751 mmHg 51%
    05:00 +11°C° 0 mm 4 m/S 751 mmHg 53%
    06:00 +11°C° 0 mm 3 m/S 751 mmHg 54%
    07:00 +12°C° 0 mm 4 m/S 752 mmHg 50%
    08:00 +13°C° 0 mm 4 m/S 752 mmHg 46%
    09:00 +14°C° 0 mm 4 m/S 752 mmHg 43%
    10:00 +14°C° 0 mm 4 m/S 752 mmHg 40%
    11:00 +15°C° 0 mm 4 m/S 751 mmHg 37%
    12:00 +17°C° 0 mm 4 m/S 751 mmHg 34%
    13:00 +17°C° 0 mm 4 m/S 751 mmHg 33%
    14:00 +18°C° 0 mm 4 m/S 750 mmHg 32%
    15:00 +18°C° 0 mm 3 m/S 750 mmHg 32%
    16:00 +17°C° 0 mm 3 m/S 750 mmHg 34%
    17:00 +17°C° 0 mm 3 m/S 751 mmHg 37%
    18:00 +16°C° 0 mm 2 m/S 751 mmHg 39%
    19:00 +16°C° 0 mm 3 m/S 751 mmHg 39%
    20:00 +16°C° 0 mm 3 m/S 751 mmHg 39%
    21:00 +14°C° 0 mm 3 m/S 752 mmHg 39%
    22:00 +16°C° 0 mm 3 m/S 751 mmHg 38%
    23:00 +15°C° 0 mm 4 m/S 751 mmHg 37%

    Morgen, 22 November, Freitag

    Zeit Temperatur Niederschläge Wind Luftdruck Luftfeuchtigkeit
    00:00 +15°C° 0 mm 4 m/S 751 mmHg 36%
    01:00 +15°C° 0 mm 4 m/S 751 mmHg 37%
    02:00 +14°C° 0 mm 4 m/S 751 mmHg 38%
    03:00 +14°C° 0 mm 4 m/S 751 mmHg 39%
    04:00 +14°C° 0 mm 4 m/S 751 mmHg 39%
    05:00 +14°C° 0 mm 4 m/S 751 mmHg 40%
    06:00 +13°C° 0 mm 3 m/S 751 mmHg 41%
    07:00 +14°C° 0 mm 4 m/S 751 mmHg 38%
    08:00 +15°C° 0 mm 4 m/S 751 mmHg 36%
    09:00 +16°C° 0 mm 5 m/S 751 mmHg 33%
    10:00 +17°C° 0 mm 5 m/S 751 mmHg 31%
    11:00 +19°C° 0 mm 5 m/S 750 mmHg 29%
    12:00 +19°C° 0 mm 5 m/S 750 mmHg 27%
    13:00 +20°C° 0 mm 5 m/S 749 mmHg 26%
    14:00 +20°C° 0 mm 5 m/S 749 mmHg 25%
    15:00 +20°C° 0 mm 5 m/S 749 mmHg 24%
    16:00 +19°C° 0 mm 5 m/S 748 mmHg 26%
    17:00 +17°C° 0 mm 6 m/S 748 mmHg 27%
    18:00 +17°C° 0 mm 6 m/S 748 mmHg 29%
    19:00 +16°C° 0 mm 6 m/S 749 mmHg 29%
    20:00 +16°C° 0 mm 6 m/S 749 mmHg 30%
    21:00 +16°C° 0 mm 6 m/S 749 mmHg 31%
    22:00 +15°C° 0 mm 6 m/S 749 mmHg 31%
    23:00 +15°C° 0 mm 6 m/S 749 mmHg 32%

    übermorgen, 23 November, Samstag

    Zeit Temperatur Niederschläge Wind Luftdruck Luftfeuchtigkeit
    00:00 +15°C° 0 mm 6 m/S 748 mmHg 32%
    01:00 +14°C° 0 mm 5 m/S 748 mmHg 33%
    02:00 +14°C° 0 mm 5 m/S 748 mmHg 34%
    03:00 +14°C° 0 mm 4 m/S 747 mmHg 34%
    04:00 +14°C° 0 mm 5 m/S 747 mmHg 34%
    05:00 +14°C° 0 mm 5 m/S 747 mmHg 34%
    06:00 +14°C° 0 mm 6 m/S 746 mmHg 35%
    07:00 +14°C° 0 mm 5 m/S 746 mmHg 34%
    08:00 +15°C° 0 mm 5 m/S 746 mmHg 33%
    09:00 +15°C° 0 mm 5 m/S 747 mmHg 32%
    10:00 +14°C° 1 mm 5 m/S 746 mmHg 43%
    11:00 +11°C° 1 mm 6 m/S 745 mmHg 54%
    12:00 +10°C° 1 mm 6 m/S 745 mmHg 65%
    13:00 +10°C° 0.3 mm 5 m/S 745 mmHg 67%
    14:00 +12°C° 0.3 mm 4 m/S 744 mmHg 68%
    15:00 +14°C° 0.3 mm 2 m/S 744 mmHg 69%
    16:00 +13°C° 0.2 mm 2 m/S 744 mmHg 70%
    17:00 +13°C° 0.2 mm 2 m/S 745 mmHg 72%
    18:00 +13°C° 0.2 mm 1 m/S 745 mmHg 73%
    19:00 +12°C° 0 mm 1 m/S 746 mmHg 76%
    20:00 +12°C° 0 mm 1 m/S 746 mmHg 78%
    21:00 +11°C° 0 mm 1 m/S 747 mmHg 81%
    22:00 +11°C° 0 mm 1 m/S 747 mmHg 79%
    23:00 +12°C° 0 mm 1 m/S 747 mmHg 77%

    24 November, Sonntag

    Zeit Temperatur Niederschläge Wind Luftdruck Luftfeuchtigkeit
    00:00 +12°C° 0 mm 1 m/S 747 mmHg 75%
    01:00 +11°C° 0 mm 3 m/S 746 mmHg 71%
    02:00 +10°C° 0 mm 5 m/S 746 mmHg 67%
    03:00 +10°C° 0 mm 7 m/S 746 mmHg 64%
    04:00 +10°C° 0 mm 6 m/S 747 mmHg 64%
    05:00 +10°C° 0 mm 6 m/S 747 mmHg 65%
    06:00 +10°C° 0 mm 6 m/S 747 mmHg 66%
    07:00 +11°C° 0 mm 7 m/S 748 mmHg 62%
    08:00 +12°C° 0 mm 8 m/S 748 mmHg 59%
    09:00 +13°C° 0 mm 10 m/S 749 mmHg 55%
    10:00 +14°C° 0 mm 10 m/S 749 mmHg 52%
    11:00 +16°C° 0 mm 11 m/S 749 mmHg 48%
    12:00 +17°C° 0 mm 11 m/S 749 mmHg 45%
    13:00 +17°C° 0 mm 11 m/S 749 mmHg 45%
    14:00 +17°C° 0 mm 11 m/S 749 mmHg 46%
    15:00 +17°C° 0 mm 11 m/S 749 mmHg 46%
    16:00 +16°C° 0 mm 10 m/S 749 mmHg 49%
    17:00 +15°C° 0 mm 9 m/S 750 mmHg 52%
    18:00 +13°C° 0 mm 8 m/S 751 mmHg 55%
    19:00 +13°C° 0 mm 8 m/S 751 mmHg 57%
    20:00 +13°C° 0 mm 9 m/S 751 mmHg 59%
    21:00 +12°C° 0 mm 9 m/S 752 mmHg 61%
    22:00 +12°C° 0 mm 9 m/S 752 mmHg 63%
    23:00 +12°C° 0 mm 8 m/S 752 mmHg 64%

    25 November, Montag

    Zeit Temperatur Niederschläge Wind Luftdruck Luftfeuchtigkeit
    00:00 +12°C° 0 mm 8 m/S 752 mmHg 66%
    01:00 +11°C° 0 mm 8 m/S 752 mmHg 67%
    02:00 +11°C° 0 mm 7 m/S 752 mmHg 68%
    03:00 +11°C° 0 mm 7 m/S 752 mmHg 69%
    04:00 +11°C° 0 mm 7 m/S 752 mmHg 68%
    05:00 +11°C° 0 mm 8 m/S 753 mmHg 68%
    06:00 +11°C° 0 mm 8 m/S 753 mmHg 67%
    07:00 +12°C° 0 mm 8 m/S 753 mmHg 63%
    08:00 +13°C° 0 mm 8 m/S 754 mmHg 59%
    09:00 +15°C° 0 mm 8 m/S 754 mmHg 56%
    10:00 +17°C° 0 mm 7 m/S 754 mmHg 51%
    11:00 +19°C° 0 mm 6 m/S 754 mmHg 47%
    12:00 +20°C° 0 mm 6 m/S 754 mmHg 42%
    13:00 +21°C° 0 mm 5 m/S 754 mmHg 42%
    14:00 +21°C° 0 mm 5 m/S 754 mmHg 42%
    15:00 +21°C° 0 mm 5 m/S 754 mmHg 42%
    16:00 +20°C° 0 mm 5 m/S 754 mmHg 45%
    17:00 +19°C° 0 mm 5 m/S 754 mmHg 49%
    18:00 +16°C° 0 mm 5 m/S 755 mmHg 52%
    19:00 +17°C° 0 mm 4 m/S 755 mmHg 54%
    20:00 +16°C° 0 mm 3 m/S 756 mmHg 55%
    21:00 +16°C° 0 mm 3 m/S 756 mmHg 57%
    22:00 +16°C° 0 mm 2 m/S 756 mmHg 58%
    23:00 +15°C° 0 mm 2 m/S 756 mmHg 60%

    26 November, Dienstag

    Zeit Temperatur Niederschläge Wind Luftdruck Luftfeuchtigkeit
    00:00 +15°C° 0 mm 2 m/S 756 mmHg 61%
    01:00 +15°C° 0 mm 2 m/S 756 mmHg 62%
    02:00 +14°C° 0 mm 2 m/S 755 mmHg 63%
    03:00 +14°C° 0 mm 2 m/S 755 mmHg 64%
    04:00 +14°C° 0 mm 2 m/S 755 mmHg 65%
    05:00 +13°C° 0 mm 2 m/S 756 mmHg 67%
    06:00 +13°C° 0 mm 2 m/S 756 mmHg 68%
    07:00 +14°C° 0 mm 1 m/S 756 mmHg 63%
    08:00 +16°C° 0 mm 1 m/S 756 mmHg 58%
    09:00 +18°C° 0 mm 1 m/S 757 mmHg 53%
    10:00 +19°C° 0 mm 1 m/S 756 mmHg 50%
    11:00 +20°C° 0 mm 1 m/S 756 mmHg 47%
    12:00 +20°C° 0 mm 1 m/S 755 mmHg 45%
    13:00 +21°C° 0 mm 1 m/S 755 mmHg 44%
    14:00 +21°C° 0 mm 1 m/S 755 mmHg 44%
    15:00 +21°C° 0 mm 1 m/S 755 mmHg 43%
    16:00 +20°C° 0 mm 1 m/S 755 mmHg 47%
    17:00 +19°C° 0 mm 1 m/S 755 mmHg 52%
    18:00 +16°C° 0 mm 0 m/S 755 mmHg 56%
    19:00 +16°C° 0 mm 1 m/S 756 mmHg 58%
    20:00 +16°C° 0 mm 1 m/S 756 mmHg 59%
    21:00 +15°C° 0 mm 1 m/S 756 mmHg 60%
    22:00 +15°C° 0 mm 1 m/S 756 mmHg 62%
    23:00 +15°C° 0 mm 1 m/S 756 mmHg 63%
    Mehr zeigen